Lufkin, TX

5:07 AM CDT on September 23, 2017 (GMT -0500)
Angelina County

Weather History for KLFK - May, 2014

Change the Weather History Date:

Saturday, May 24, 2014

  Actual Average Record
Temperature  
Mean Temperature 78 °F 76 °F  
Max Temperature 88 °F 87 °F 95 °F (1937)
Min Temperature 68 °F 66 °F 50 °F (1910)
Degree Days  
Heating Degree Days 0 0  
Month to date heating degree days 11 1  
Since 1 July heating degree days 2125 1914  
Cooling Degree Days 13 11  
Month to date cooling degree days 215 207  
Year to date cooling degree days 409 383  
Growing Degree Days 28 (Base 50)    
Moisture  
Dew Point 66 °F    
Average Humidity 68    
Maximum Humidity 90    
Minimum Humidity 46    
Precipitation  
Precipitation 0.00 in 0.16 in 1.60 in (1919)
Month to date precipitation 5.35 3.49  
Year to date precipitation 13.59 18.37  
Snow  
Snow 0.00 in - - ()
Month to date snowfall 0.0  
Since 1 July snowfall 3.2  
Snow Depth 0.00 in    
Sea Level Pressure  
Sea Level Pressure 30.05 in    
Wind  
Wind Speed 3 mph (SE)    
Max Wind Speed 12 mph    
Max Gust Speed 14 mph    
Visibility 7 miles    
Events Fog    
T = Trace of Precipitation, MM = Missing Value Source: NWS Daily Summary

Daily Weather History Graph

Daily Weather History Graph

Search for Another Location

Airport or City:

Trip Planner

Search our weather history database for the weather conditions in past years. The results will help you decide how hot, cold, wet, or windy it might be!

Date:

Astronomy

May. 24, 2014 Rise Set
Actual Time 6:18 AM CDT 8:13 PM CDT
Civil Twilight 5:51 AM CDT 8:40 PM CDT
Nautical Twilight 5:18 AM CDT 9:13 PM CDT
Astronomical Twilight 4:43 AM CDT 9:48 PM CDT
Moon 3:30 AM CDT (5/24) 4:26 PM CDT (5/24)
Length of Visible Light 14h 49m
Length of Day
13h 55m
Waning Crescent, 18% of the Moon is Illuminated
May 24
Waning Crescent
May 28
New
Jun 5
First Quarter
Jun 12
Full
Jun 19
Last Quarter

Hourly Weather History & Observations

Time (CDT) Temp. Heat Index Dew Point Humidity Pressure Visibility Wind Dir Wind Speed Gust Speed Precip Events Conditions
12:53 AM 73.0 °F - 66.0 °F 79% 30.06 in 10.0 mi Calm Calm - N/A   Clear
1:53 AM 70.0 °F - 64.9 °F 84% 30.04 in 10.0 mi Calm Calm - N/A   Clear
2:53 AM 69.1 °F - 64.0 °F 84% 30.04 in 9.0 mi Calm Calm - N/A   Clear
3:53 AM 68.0 °F - 64.0 °F 87% 30.04 in 7.0 mi SE 3.5 mph - N/A   Clear
4:53 AM 69.1 °F - 64.9 °F 87% 30.04 in 7.0 mi SE 3.5 mph - N/A   Clear
5:38 AM 68.0 °F - 64.0 °F 87% 30.05 in 6.0 mi SSE 5.8 mph - N/A   Partly Cloudy
5:53 AM 68.0 °F - 64.9 °F 90% 30.03 in 5.0 mi SE 5.8 mph - N/A   Mostly Cloudy
6:09 AM 69.1 °F - 64.9 °F 87% 30.05 in 1.8 mi SE 4.6 mph - N/A   Overcast
6:22 AM 68.0 °F - 64.9 °F 90% 30.05 in 0.5 mi SE 5.8 mph - N/A Fog Fog
6:34 AM 68.0 °F - 66.0 °F 93% 30.05 in 0.2 mi SSE 5.8 mph - N/A Fog Fog
6:53 AM 69.1 °F - 66.0 °F 90% 30.05 in 0.2 mi SSE 4.6 mph - N/A Fog Fog
7:53 AM 70.0 °F - 66.9 °F 90% 30.06 in 0.2 mi SE 4.6 mph - N/A Fog Fog
8:02 AM 70.0 °F - 66.9 °F 90% 30.07 in 0.5 mi SSE 5.8 mph - N/A Fog Fog
8:24 AM 71.1 °F - 68.0 °F 90% 30.07 in 1.5 mi South 4.6 mph - N/A   Overcast
8:35 AM 71.1 °F - 68.0 °F 90% 30.07 in 2.0 mi SE 6.9 mph - N/A   Overcast
8:53 AM 71.1 °F - 68.0 °F 90% 30.08 in 2.5 mi SE 4.6 mph - N/A   Overcast
9:04 AM 71.1 °F - 68.0 °F 90% 30.09 in 3.0 mi SE 3.5 mph - N/A   Overcast
9:53 AM 73.0 °F - 68.0 °F 84% 30.09 in 8.0 mi Calm Calm - N/A   Overcast
10:20 AM 75.9 °F - 68.0 °F 76% 30.10 in 10.0 mi Calm Calm - N/A   Mostly Cloudy
10:41 AM 78.1 °F - 66.9 °F 68% 30.10 in 10.0 mi South 5.8 mph - N/A   Overcast
10:50 AM 78.8 °F - 66.2 °F 65% 30.11 in 10.0 mi South 5.8 mph - N/A   Mostly Cloudy
10:53 AM 78.1 °F - 66.0 °F 66% 30.09 in 10.0 mi South 5.8 mph - N/A   Overcast
11:18 AM 79.0 °F - 66.0 °F 64% 30.10 in 10.0 mi SSE 5.8 mph - N/A   Overcast
11:42 AM 79.0 °F - 66.0 °F 64% 30.10 in 10.0 mi South 3.5 mph - N/A   Overcast
11:53 AM 79.0 °F - 64.9 °F 62% 30.09 in 10.0 mi Calm Calm - N/A   Overcast
12:53 PM 81.0 °F 83.0 °F 66.0 °F 60% 30.07 in 10.0 mi Variable 3.5 mph - N/A   Overcast
1:53 PM 82.9 °F 84.6 °F 64.9 °F 54% 30.06 in 10.0 mi South 3.5 mph - N/A   Mostly Cloudy
2:53 PM 84.9 °F 86.6 °F 64.9 °F 51% 30.04 in 10.0 mi SE 4.6 mph - N/A   Mostly Cloudy
3:53 PM 87.1 °F 88.9 °F 64.9 °F 48% 30.01 in 10.0 mi North - - N/A   Partly Cloudy
4:53 PM 87.1 °F 89.9 °F 66.9 °F 51% 29.99 in 10.0 mi ENE 6.9 mph - N/A   Clear
5:53 PM 86.0 °F 88.2 °F 66.0 °F 51% 29.98 in 10.0 mi East 3.5 mph - N/A   Clear
6:53 PM 86.0 °F 88.8 °F 66.9 °F 53% 29.98 in 10.0 mi NE 3.5 mph - N/A   Clear
7:53 PM 81.0 °F 83.8 °F 68.0 °F 65% 29.97 in 10.0 mi ENE 5.8 mph - N/A   Clear
8:53 PM 77.0 °F - 68.0 °F 74% 29.99 in 10.0 mi Calm Calm - N/A   Clear
9:53 PM 73.4 °F - 68.0 °F 83% 30.03 in 10.0 mi Calm Calm - N/A   Clear
10:53 PM 75.9 °F - 66.9 °F 74% 30.03 in 10.0 mi SSE 3.5 mph - N/A   Clear
11:53 PM 73.0 °F - 66.9 °F 81% 30.03 in 10.0 mi SSE 5.8 mph - N/A   Clear